• In Deutschland
  • Länderverzeichnis
  • Für 7 Tage
  • Wassertemperatur
  • Satellitenkarten
  • Wetterkarte
  • Widgets
  • user-avatar
    Anmelden

    Stündliche Wetter Cobija

    Heute, 23 November, Donnerstag

    Zeit Temperatur Niederschläge Wind Luftdruck Luftfeuchtigkeit
    00:00 +26°C° 0 mm 1 m/S 737 mmHg 83%
    01:00 +25°C° 0 mm 1 m/S 736 mmHg 85%
    02:00 +25°C° 0,2 mm 1 m/S 737 mmHg 87%
    03:00 +25°C° 0,2 mm 1 m/S 737 mmHg 90%
    04:00 +24°C° 0,2 mm 1 m/S 737 mmHg 93%
    05:00 +25°C° 0 mm 1 m/S 737 mmHg 90%
    06:00 +26°C° 0 mm 1 m/S 738 mmHg 87%
    07:00 +27°C° 0 mm 1 m/S 738 mmHg 84%
    08:00 +29°C° 0,8 mm 1 m/S 738 mmHg 78%
    09:00 +31°C° 0,8 mm 1 m/S 738 mmHg 71%
    10:00 +33°C° 0,8 mm 1 m/S 738 mmHg 65%
    11:00 +34°C° 0,3 mm 1 m/S 737 mmHg 58%
    12:00 +35°C° 0,3 mm 1 m/S 737 mmHg 51%
    13:00 +36°C° 0,3 mm 1 m/S 736 mmHg 44%
    14:00 +35°C° 0 mm 1 m/S 735 mmHg 50%
    15:00 +34°C° 0 mm 1 m/S 734 mmHg 55%
    16:00 +32°C° 0 mm 1 m/S 734 mmHg 60%
    17:00 +29°C° 0 mm 0 m/S 734 mmHg 65%
    18:00 +28°C° 0 mm 0 m/S 734 mmHg 70%
    19:00 +26°C° 0 mm 0 m/S 735 mmHg 75%
    20:00 +26°C° 0,1 mm 0 m/S 735 mmHg 77%
    21:00 +26°C° 0,1 mm 0 m/S 736 mmHg 79%
    22:00 +25°C° 0,1 mm 0 m/S 736 mmHg 81%
    23:00 +25°C° 0,1 mm 0 m/S 736 mmHg 83%

    Morgen, 24 November, Freitag

    Zeit Temperatur Niederschläge Wind Luftdruck Luftfeuchtigkeit
    00:00 +24°C° 0,1 mm 0 m/S 736 mmHg 85%
    01:00 +24°C° 0,1 mm 0 m/S 735 mmHg 87%
    02:00 +23°C° 0,2 mm 0 m/S 735 mmHg 89%
    03:00 +23°C° 0,2 mm 0 m/S 735 mmHg 91%
    04:00 +23°C° 0,2 mm 0 m/S 736 mmHg 93%
    05:00 +24°C° 0,4 mm 0 m/S 736 mmHg 91%
    06:00 +24°C° 0,4 mm 0 m/S 737 mmHg 89%
    07:00 +25°C° 0,4 mm 0 m/S 738 mmHg 87%
    08:00 +28°C° 0,1 mm 0 m/S 738 mmHg 76%
    09:00 +32°C° 0,1 mm 1 m/S 738 mmHg 65%
    10:00 +34°C° 0,1 mm 1 m/S 738 mmHg 54%
    11:00 +35°C° 0,2 mm 1 m/S 737 mmHg 52%
    12:00 +35°C° 0,2 mm 1 m/S 737 mmHg 50%
    13:00 +35°C° 0,2 mm 1 m/S 736 mmHg 48%
    14:00 +34°C° 0 mm 1 m/S 735 mmHg 52%
    15:00 +34°C° 0 mm 1 m/S 735 mmHg 56%
    16:00 +33°C° 0 mm 1 m/S 734 mmHg 60%
    17:00 +30°C° 0 mm 0 m/S 734 mmHg 65%
    18:00 +28°C° 0 mm 0 m/S 735 mmHg 69%
    19:00 +27°C° 0 mm 0 m/S 735 mmHg 74%
    20:00 +26°C° 0 mm 0 m/S 735 mmHg 75%
    21:00 +26°C° 0 mm 0 m/S 736 mmHg 77%
    22:00 +25°C° 0 mm 0 m/S 736 mmHg 78%
    23:00 +25°C° 0,1 mm 0 m/S 736 mmHg 80%

    übermorgen, 25 November, Samstag

    Zeit Temperatur Niederschläge Wind Luftdruck Luftfeuchtigkeit
    00:00 +24°C° 0,1 mm 0 m/S 735 mmHg 82%
    01:00 +24°C° 0,1 mm 0 m/S 735 mmHg 84%
    02:00 +24°C° 0,1 mm 0 m/S 735 mmHg 86%
    03:00 +23°C° 0,1 mm 0 m/S 735 mmHg 88%
    04:00 +23°C° 0,1 mm 0 m/S 735 mmHg 90%
    05:00 +24°C° 0 mm 0 m/S 736 mmHg 86%
    06:00 +25°C° 0 mm 0 m/S 737 mmHg 83%
    07:00 +26°C° 0 mm 0 m/S 737 mmHg 79%
    08:00 +27°C° 0,7 mm 0 m/S 738 mmHg 78%
    09:00 +30°C° 0,7 mm 1 m/S 738 mmHg 78%
    10:00 +32°C° 0,7 mm 1 m/S 738 mmHg 77%
    11:00 +33°C° 0,2 mm 1 m/S 737 mmHg 66%
    12:00 +34°C° 0,2 mm 1 m/S 736 mmHg 56%
    13:00 +37°C° 0,2 mm 2 m/S 736 mmHg 46%
    14:00 +35°C° 0 mm 1 m/S 735 mmHg 48%
    15:00 +35°C° 0 mm 1 m/S 735 mmHg 50%
    16:00 +34°C° 0 mm 1 m/S 734 mmHg 52%
    17:00 +33°C° 0 mm 1 m/S 734 mmHg 58%
    18:00 +31°C° 0 mm 1 m/S 734 mmHg 65%
    19:00 +29°C° 0 mm 1 m/S 735 mmHg 72%
    20:00 +28°C° 0,1 mm 1 m/S 735 mmHg 76%
    21:00 +27°C° 0,1 mm 1 m/S 735 mmHg 80%
    22:00 +24°C° 0,1 mm 0 m/S 735 mmHg 85%
    23:00 +24°C° 0,3 mm 0 m/S 735 mmHg 88%

    26 November, Sonntag

    Zeit Temperatur Niederschläge Wind Luftdruck Luftfeuchtigkeit
    00:00 +25°C° 0,3 mm 1 m/S 735 mmHg 90%
    01:00 +25°C° 0,3 mm 1 m/S 735 mmHg 93%
    02:00 +25°C° 0,1 mm 1 m/S 735 mmHg 94%
    03:00 +25°C° 0,1 mm 1 m/S 735 mmHg 95%
    04:00 +22°C° 0,1 mm 0 m/S 735 mmHg 96%
    05:00 +23°C° 0,3 mm 0 m/S 736 mmHg 95%
    06:00 +23°C° 0,3 mm 0 m/S 737 mmHg 94%
    07:00 +24°C° 0,3 mm 0 m/S 737 mmHg 93%
    08:00 +27°C° 0,7 mm 1 m/S 737 mmHg 93%
    09:00 +28°C° 0,7 mm 1 m/S 737 mmHg 92%
    10:00 +29°C° 0,7 mm 1 m/S 738 mmHg 91%
    11:00 +30°C° 0,6 mm 2 m/S 737 mmHg 83%
    12:00 +31°C° 0,6 mm 2 m/S 736 mmHg 75%
    13:00 +32°C° 0,6 mm 2 m/S 736 mmHg 67%
    14:00 +30°C° 0,8 mm 2 m/S 736 mmHg 75%
    15:00 +29°C° 0,8 mm 2 m/S 735 mmHg 84%
    16:00 +28°C° 0,8 mm 1 m/S 735 mmHg 92%
    17:00 +27°C° 0,1 mm 1 m/S 735 mmHg 94%
    18:00 +26°C° 0,1 mm 1 m/S 736 mmHg 96%
    19:00 +26°C° 0,1 mm 1 m/S 736 mmHg 97%
    20:00 +25°C° 0 mm 1 m/S 736 mmHg 98%
    21:00 +23°C° 0 mm 0 m/S 736 mmHg 98%
    22:00 +23°C° 0 mm 0 m/S 736 mmHg 99%
    23:00 +22°C° 0 mm 0 m/S 736 mmHg 99%

    27 November, Montag

    Zeit Temperatur Niederschläge Wind Luftdruck Luftfeuchtigkeit
    00:00 +22°C° 0 mm 0 m/S 735 mmHg 99%
    01:00 +22°C° 0 mm 0 m/S 735 mmHg 99%
    02:00 +22°C° 0 mm 0 m/S 735 mmHg 99%
    03:00 +22°C° 0 mm 0 m/S 735 mmHg 99%
    04:00 +22°C° 0 mm 0 m/S 735 mmHg 99%
    05:00 +23°C° 0 mm 0 m/S 736 mmHg 97%
    06:00 +23°C° 0 mm 0 m/S 736 mmHg 94%
    07:00 +24°C° 0 mm 0 m/S 737 mmHg 92%
    08:00 +28°C° 0 mm 1 m/S 737 mmHg 80%
    09:00 +30°C° 0 mm 1 m/S 737 mmHg 68%
    10:00 +32°C° 0 mm 1 m/S 737 mmHg 56%
    11:00 +33°C° 0 mm 1 m/S 736 mmHg 51%
    12:00 +35°C° 0 mm 1 m/S 736 mmHg 46%
    13:00 +36°C° 0 mm 1 m/S 735 mmHg 41%
    14:00 +35°C° 0 mm 1 m/S 734 mmHg 44%
    15:00 +35°C° 0 mm 1 m/S 734 mmHg 46%
    16:00 +35°C° 0 mm 1 m/S 733 mmHg 49%
    17:00 +33°C° 0 mm 1 m/S 734 mmHg 55%
    18:00 +29°C° 0 mm 0 m/S 734 mmHg 60%
    19:00 +27°C° 0 mm 0 m/S 735 mmHg 66%
    20:00 +26°C° 0 mm 0 m/S 735 mmHg 68%
    21:00 +26°C° 0 mm 0 m/S 735 mmHg 70%
    22:00 +25°C° 0 mm 0 m/S 735 mmHg 73%
    23:00 +25°C° 0,1 mm 0 m/S 735 mmHg 76%

    28 November, Dienstag

    Zeit Temperatur Niederschläge Wind Luftdruck Luftfeuchtigkeit
    00:00 +24°C° 0,1 mm 0 m/S 735 mmHg 79%
    01:00 +24°C° 0,1 mm 0 m/S 735 mmHg 82%
    02:00 +23°C° 0,8 mm 0 m/S 735 mmHg 86%
    03:00 +22°C° 0,8 mm 0 m/S 735 mmHg 91%
    04:00 +22°C° 0,8 mm 0 m/S 736 mmHg 95%
    05:00 +23°C° 0,2 mm 0 m/S 737 mmHg 93%
    06:00 +24°C° 0,2 mm 0 m/S 738 mmHg 91%
    07:00 +25°C° 0,2 mm 0 m/S 739 mmHg 89%
    08:00 +27°C° 1,5 mm 0 m/S 738 mmHg 85%
    09:00 +28°C° 1,5 mm 0 m/S 738 mmHg 82%
    10:00 +32°C° 1,5 mm 1 m/S 738 mmHg 78%
    11:00 +32°C° 0,9 mm 1 m/S 738 mmHg 77%
    12:00 +32°C° 0,9 mm 1 m/S 737 mmHg 75%
    13:00 +32°C° 0,9 mm 1 m/S 737 mmHg 74%
    14:00 +31°C° 0,5 mm 1 m/S 736 mmHg 73%
    15:00 +31°C° 0,5 mm 1 m/S 736 mmHg 73%
    16:00 +30°C° 0,5 mm 1 m/S 736 mmHg 72%
    17:00 +29°C° 0,8 mm 1 m/S 736 mmHg 79%
    18:00 +27°C° 0,8 mm 1 m/S 736 mmHg 86%
    19:00 +26°C° 0,8 mm 1 m/S 736 mmHg 93%
    20:00 +25°C° 0 mm 1 m/S 737 mmHg 94%
    21:00 +25°C° 0 mm 1 m/S 737 mmHg 94%
    22:00 +25°C° 0 mm 1 m/S 738 mmHg 95%
    23:00 +23°C° 0 mm 0 m/S 737 mmHg 95%
    Mehr zeigen